TimeCST,TemperatureF,Dew PointF,Humidity,Sea Level PressureIn,VisibilityMPH,Wind Direction,Wind SpeedMPH,Gust SpeedMPH,PrecipitationIn,Events,Conditions,WindDirDegrees,DateUTC
12:15 AM,21.2,19.4,93,29.86,10.0,SSW,6.9,-,N/A,,Overcast,210,2012-12-31 06:15:00
12:35 AM,23.0,19.4,86,29.85,10.0,SW,8.1,-,N/A,,Overcast,220,2012-12-31 06:35:00
12:55 AM,23.0,19.4,86,29.86,10.0,SW,6.9,-,N/A,,Overcast,230,2012-12-31 06:55:00
1:15 AM,21.2,19.4,93,29.86,10.0,SW,8.1,-,N/A,,Overcast,230,2012-12-31 07:15:00
1:55 AM,19.4,17.6,93,29.86,10.0,WSW,6.9,-,N/A,,Scattered Clouds,240,2012-12-31 07:55:00
2:15 AM,19.4,17.6,93,29.86,10.0,WSW,6.9,-,N/A,,Clear,250,2012-12-31 08:15:00
2:35 AM,17.6,15.8,93,29.86,10.0,WSW,8.1,-,N/A,,Clear,250,2012-12-31 08:35:00
2:55 AM,17.6,15.8,93,29.87,7.0,WSW,9.2,-,N/A,,Clear,250,2012-12-31 08:55:00
3:15 AM,17.6,15.8,93,29.87,7.0,WSW,9.2,-,N/A,,Mostly Cloudy,250,2012-12-31 09:15:00
3:35 AM,17.6,17.6,100,29.88,7.0,WSW,9.2,-,N/A,,Overcast,250,2012-12-31 09:35:00
3:55 AM,19.4,19.4,100,29.88,10.0,West,10.4,-,N/A,,Overcast,270,2012-12-31 09:55:00
4:15 AM,19.4,19.4,100,29.89,10.0,West,12.7,-,N/A,,Overcast,280,2012-12-31 10:15:00
4:35 AM,19.4,17.6,93,29.89,7.0,West,11.5,-,N/A,,Overcast,280,2012-12-31 10:35:00
5:45 AM,17.6,15.8,93,29.91,10.0,WNW,11.5,18.4,N/A,,Overcast,300,2012-12-31 11:45:00
6:45 AM,17.6,15.8,93,29.94,7.0,WNW,16.1,28.8,N/A,,Overcast,290,2012-12-31 12:45:00
7:45 AM,15.8,15.8,100,29.98,5.0,WNW,15.0,24.2,N/A,Snow,Light Snow,300,2012-12-31 13:45:00
8:45 AM,15.8,12.2,86,29.98,7.0,WNW,12.7,23.0,N/A,Snow,Light Snow,300,2012-12-31 14:45:00
9:45 AM,15.8,10.4,79,29.99,10.0,WNW,16.1,20.7,N/A,,Overcast,290,2012-12-31 15:45:00
10:45 AM,15.8,10.4,79,30.02,10.0,WNW,13.8,20.7,N/A,,Overcast,300,2012-12-31 16:45:00
11:45 AM,15.8,10.4,79,30.01,10.0,WNW,11.5,-,N/A,,Overcast,290,2012-12-31 17:45:00
12:50 PM,15.8,8.6,73,30.00,10.0,WNW,10.4,-,N/A,,Scattered Clouds,300,2012-12-31 18:50:00
1:50 PM,15.8,6.8,68,30.01,10.0,WNW,10.4,-,N/A,,Clear,300,2012-12-31 19:50:00
2:50 PM,15.8,6.8,68,30.02,10.0,WNW,10.4,17.3,N/A,,Clear,300,2012-12-31 20:50:00
3:50 PM,15.8,6.8,68,30.04,10.0,WNW,13.8,17.3,N/A,,Clear,290,2012-12-31 21:50:00
4:50 PM,12.2,3.2,67,30.05,10.0,NW,6.9,-,N/A,,Clear,310,2012-12-31 22:50:00
5:55 PM,6.8,1.4,79,30.07,10.0,NW,6.9,-,N/A,,Clear,320,2012-12-31 23:55:00
7:50 PM,8.6,1.4,73,30.11,10.0,NNW,6.9,-,N/A,,Clear,340,2013-01-01 01:50:00
8:50 PM,8.6,1.4,73,30.11,10.0,North,8.1,-,N/A,,Clear,350,2013-01-01 02:50:00
9:15 PM,8.6,1.4,73,30.11,10.0,North,11.5,-,N/A,,Clear,350,2013-01-01 03:15:00
9:35 PM,8.6,1.4,73,30.11,10.0,North,11.5,-,N/A,,Clear,350,2013-01-01 03:35:00
9:45 PM,6.8,1.4,79,30.11,10.0,North,9.2,-,N/A,,Clear,350,2013-01-01 03:45:00
9:55 PM,6.8,1.4,79,30.11,10.0,NNW,9.2,-,N/A,,Clear,340,2013-01-01 03:55:00
10:15 PM,5.0,1.4,85,30.12,10.0,NNW,8.1,-,N/A,,Clear,330,2013-01-01 04:15:00
10:35 PM,3.2,-0.4,85,30.13,10.0,NNW,8.1,-,N/A,,Clear,330,2013-01-01 04:35:00
10:55 PM,1.4,-2.2,85,30.13,10.0,WNW,5.8,-,N/A,,Clear,300,2013-01-01 04:55:00
11:15 PM,1.4,-2.2,85,30.14,10.0,WNW,4.6,-,N/A,,Clear,300,2013-01-01 05:15:00
11:35 PM,-0.4,-4.0,85,30.14,10.0,WNW,6.9,-,N/A,,Clear,300,2013-01-01 05:35:00
11:55 PM,1.4,-2.2,85,30.14,10.0,WNW,5.8,-,N/A,,Clear,290,2013-01-01 05:55:00